EN

Hourly Weather Aarau

Today, 12 June, Saturday

Time Temperature Precipitation Wind Pressure Humidity
00:00 +16°C° 0 mm 1 mps 728 mmHg 87%
01:00 +15°C° 0 mm 0 mps 728 mmHg 88%
02:00 +15°C° 0 mm 0 mps 728 mmHg 88%
03:00 +15°C° 0 mm 1 mps 728 mmHg 89%
04:00 +15°C° 0 mm 1 mps 728 mmHg 89%
05:00 +16°C° 0 mm 1 mps 728 mmHg 86%
06:00 +18°C° 0 mm 1 mps 729 mmHg 83%
07:00 +20°C° 0 mm 1 mps 729 mmHg 79%
08:00 +22°C° 0 mm 1 mps 729 mmHg 71%
09:00 +24°C° 0 mm 1 mps 729 mmHg 63%
10:00 +26°C° 0 mm 1 mps 729 mmHg 55%
11:00 +27°C° 0 mm 2 mps 729 mmHg 52%
12:00 +28°C° 0 mm 2 mps 729 mmHg 48%
13:00 +28°C° 0 mm 3 mps 729 mmHg 44%
14:00 +28°C° 0 mm 3 mps 729 mmHg 48%
15:00 +27°C° 0 mm 3 mps 729 mmHg 53%
16:00 +26°C° 0 mm 3 mps 729 mmHg 57%
17:00 +25°C° 0.1 mm 3 mps 729 mmHg 63%
18:00 +24°C° 0.1 mm 2 mps 730 mmHg 70%
19:00 +23°C° 0.1 mm 2 mps 730 mmHg 76%
20:00 +21°C° 0 mm 1 mps 730 mmHg 82%
21:00 +20°C° 0 mm 1 mps 731 mmHg 88%
22:00 +18°C° 0 mm 1 mps 731 mmHg 93%
23:00 +18°C° 0 mm 1 mps 731 mmHg 94%

Tomorrow, 13 June, Sunday

Time Temperature Precipitation Wind Pressure Humidity
00:00 +16°C° 0 mm 0 mps 731 mmHg 94%
01:00 +15°C° 0 mm 0 mps 731 mmHg 95%
02:00 +15°C° 0 mm 0 mps 731 mmHg 95%
03:00 +15°C° 0 mm 0 mps 731 mmHg 95%
04:00 +15°C° 0 mm 0 mps 731 mmHg 96%
05:00 +16°C° 0 mm 1 mps 731 mmHg 93%
06:00 +18°C° 0 mm 1 mps 731 mmHg 90%
07:00 +19°C° 0 mm 1 mps 731 mmHg 87%
08:00 +20°C° 0 mm 1 mps 731 mmHg 80%
09:00 +22°C° 0 mm 1 mps 731 mmHg 73%
10:00 +23°C° 0 mm 2 mps 731 mmHg 66%
11:00 +24°C° 0 mm 2 mps 731 mmHg 61%
12:00 +25°C° 0 mm 2 mps 731 mmHg 57%
13:00 +26°C° 0 mm 2 mps 731 mmHg 52%
14:00 +26°C° 0 mm 3 mps 731 mmHg 51%
15:00 +26°C° 0 mm 3 mps 731 mmHg 50%
16:00 +27°C° 0 mm 3 mps 731 mmHg 50%
17:00 +25°C° 0 mm 3 mps 731 mmHg 57%
18:00 +24°C° 0 mm 3 mps 731 mmHg 64%
19:00 +21°C° 0 mm 3 mps 730 mmHg 70%
20:00 +20°C° 0 mm 2 mps 731 mmHg 75%
21:00 +18°C° 0 mm 2 mps 731 mmHg 80%
22:00 +16°C° 0 mm 2 mps 731 mmHg 84%
23:00 +15°C° 0 mm 2 mps 730 mmHg 87%

Day after tomorrow, 14 June, Monday

Time Temperature Precipitation Wind Pressure Humidity
00:00 +14°C° 0 mm 2 mps 730 mmHg 89%
01:00 +13°C° 0 mm 1 mps 730 mmHg 92%
02:00 +12°C° 0 mm 1 mps 730 mmHg 92%
03:00 +12°C° 0 mm 1 mps 730 mmHg 92%
04:00 +11°C° 0 mm 1 mps 729 mmHg 91%
05:00 +13°C° 0 mm 1 mps 730 mmHg 86%
06:00 +14°C° 0 mm 1 mps 730 mmHg 80%
07:00 +15°C° 0 mm 1 mps 730 mmHg 75%
08:00 +18°C° 0 mm 1 mps 730 mmHg 68%
09:00 +19°C° 0 mm 2 mps 730 mmHg 62%
10:00 +21°C° 0 mm 2 mps 729 mmHg 56%
11:00 +24°C° 0 mm 2 mps 729 mmHg 52%
12:00 +26°C° 0 mm 2 mps 729 mmHg 47%
13:00 +27°C° 0 mm 2 mps 729 mmHg 43%
14:00 +27°C° 0 mm 2 mps 728 mmHg 43%
15:00 +28°C° 0 mm 2 mps 728 mmHg 43%
16:00 +28°C° 0 mm 2 mps 728 mmHg 43%
17:00 +27°C° 0 mm 2 mps 728 mmHg 53%
18:00 +25°C° 0 mm 1 mps 728 mmHg 63%
19:00 +24°C° 0 mm 1 mps 728 mmHg 73%
20:00 +22°C° 0 mm 1 mps 728 mmHg 79%
21:00 +20°C° 0 mm 1 mps 728 mmHg 85%
22:00 +18°C° 0 mm 1 mps 728 mmHg 91%
23:00 +16°C° 0 mm 1 mps 728 mmHg 92%

15 June, Tuesday

Time Temperature Precipitation Wind Pressure Humidity
00:00 +16°C° 0 mm 1 mps 728 mmHg 93%
01:00 +15°C° 0 mm 1 mps 728 mmHg 93%
02:00 +15°C° 0 mm 1 mps 728 mmHg 94%
03:00 +14°C° 0 mm 1 mps 727 mmHg 94%
04:00 +14°C° 0 mm 1 mps 727 mmHg 94%
05:00 +15°C° 0 mm 1 mps 728 mmHg 90%
06:00 +16°C° 0 mm 0 mps 728 mmHg 85%
07:00 +17°C° 0 mm 0 mps 728 mmHg 81%
08:00 +21°C° 0 mm 1 mps 728 mmHg 72%
09:00 +23°C° 0 mm 1 mps 728 mmHg 64%
10:00 +25°C° 0 mm 1 mps 728 mmHg 55%
11:00 +27°C° 0 mm 1 mps 728 mmHg 50%
12:00 +28°C° 0 mm 1 mps 728 mmHg 46%
13:00 +29°C° 0 mm 1 mps 728 mmHg 41%
14:00 +29°C° 0 mm 1 mps 727 mmHg 41%
15:00 +29°C° 0 mm 1 mps 727 mmHg 40%
16:00 +30°C° 0 mm 1 mps 727 mmHg 40%
17:00 +28°C° 0 mm 1 mps 727 mmHg 50%
18:00 +27°C° 0 mm 1 mps 727 mmHg 60%
19:00 +25°C° 0 mm 1 mps 727 mmHg 71%
20:00 +23°C° 0 mm 1 mps 727 mmHg 76%
21:00 +21°C° 0 mm 1 mps 727 mmHg 81%
22:00 +19°C° 0 mm 1 mps 727 mmHg 86%
23:00 +19°C° 0 mm 1 mps 727 mmHg 87%

16 June, Wednesday

Time Temperature Precipitation Wind Pressure Humidity
00:00 +18°C° 0 mm 1 mps 726 mmHg 89%
01:00 +18°C° 0 mm 1 mps 726 mmHg 90%
02:00 +16°C° 0 mm 1 mps 726 mmHg 90%
03:00 +16°C° 0 mm 1 mps 726 mmHg 91%
04:00 +16°C° 0 mm 1 mps 726 mmHg 92%
05:00 +18°C° 0 mm 1 mps 726 mmHg 88%
06:00 +19°C° 0 mm 1 mps 726 mmHg 83%
07:00 +19°C° 0 mm 0 mps 726 mmHg 79%
08:00 +21°C° 0 mm 0 mps 726 mmHg 71%
09:00 +23°C° 0 mm 0 mps 726 mmHg 63%
10:00 +26°C° 0 mm 0 mps 726 mmHg 55%
11:00 +29°C° 0 mm 1 mps 726 mmHg 50%
12:00 +31°C° 0 mm 1 mps 726 mmHg 45%
13:00 +32°C° 0 mm 1 mps 726 mmHg 40%
14:00 +32°C° 0 mm 1 mps 725 mmHg 39%
15:00 +32°C° 0 mm 1 mps 725 mmHg 38%
16:00 +32°C° 0 mm 1 mps 725 mmHg 38%
17:00 +31°C° 0 mm 1 mps 725 mmHg 47%
18:00 +29°C° 0 mm 1 mps 724 mmHg 57%
19:00 +28°C° 0 mm 1 mps 724 mmHg 67%
20:00 +26°C° 0 mm 1 mps 724 mmHg 70%
21:00 +24°C° 0 mm 1 mps 724 mmHg 74%
22:00 +22°C° 0 mm 1 mps 724 mmHg 78%
23:00 +22°C° 0 mm 1 mps 724 mmHg 80%

17 June, Thursday

Time Temperature Precipitation Wind Pressure Humidity
00:00 +21°C° 0 mm 1 mps 724 mmHg 82%
01:00 +20°C° 0 mm 1 mps 724 mmHg 85%
02:00 +20°C° 0 mm 1 mps 724 mmHg 86%
03:00 +19°C° 0 mm 1 mps 724 mmHg 87%
04:00 +19°C° 0 mm 1 mps 724 mmHg 89%
05:00 +20°C° 0 mm 1 mps 725 mmHg 85%
06:00 +21°C° 0 mm 1 mps 725 mmHg 82%
07:00 +23°C° 0 mm 1 mps 725 mmHg 79%
08:00 +25°C° 0.1 mm 1 mps 725 mmHg 72%
09:00 +25°C° 0.1 mm 0 mps 725 mmHg 65%
10:00 +27°C° 0.1 mm 0 mps 726 mmHg 58%
11:00 +30°C° 0 mm 1 mps 725 mmHg 53%
12:00 +31°C° 0 mm 1 mps 725 mmHg 48%
13:00 +33°C° 0 mm 1 mps 725 mmHg 44%
14:00 +33°C° 0 mm 1 mps 725 mmHg 42%
15:00 +34°C° 0 mm 2 mps 724 mmHg 41%
16:00 +34°C° 0 mm 2 mps 724 mmHg 40%
17:00 +32°C° 0 mm 2 mps 723 mmHg 49%
18:00 +30°C° 0 mm 2 mps 723 mmHg 59%
19:00 +28°C° 0 mm 1 mps 723 mmHg 68%
20:00 +26°C° 0.1 mm 1 mps 723 mmHg 74%
21:00 +25°C° 0.1 mm 1 mps 723 mmHg 79%
22:00 +23°C° 0.1 mm 1 mps 723 mmHg 85%
23:00 +22°C° 0.1 mm 1 mps 723 mmHg 86%
Show more